Aeroporto :
LOGIN :

Iscrizione | Disclaimer

   EN    FR    IT 

 










Sommario :    VFR   VFR Marginale   IFR   IFR Intensivo   IFR Molto Intensivo
Visibilità : 
Base nubi : 
>= 8 km
>= 3000ft
5 / 8 km
1000 / 3000 ft
1500m / 5 km
500 / 1000 ft
800 / 1500m
200 / 500 ft
< 800m
< 200 ft
Simboli :   Temporali  Nebbia  Neve Forte  Precipitazioni Forti  Vento > 20 kt
SIGMETs :   Varie  Temporali  Ghiacco  Turbolenza  Onda orograficha  Ceneri Vulcaniche







- Altitudine del aeroporto : 1306 ft
- Codice IATA : ACH


LSZR - Alten Rhein

ULTIMO METAR :
  • 190850Z 27004KT 9999 SCT060 03/02 Q1022 NOSIG RMK D

METARs OBSOLETI :
  • 190820Z 27004KT 9999 SCT060 03/02 Q1022 NOSIG RMK D
  • 190750Z AUTO 27003KT 230V310 9000 OVC060 02/01 Q1022
  • 190720Z VRB02KT 9999 SCT050 01/M00 Q1022 NOSIG RMK C
  • 190650Z VRB02KT CAVOK M01/M02 Q1022 NOSIG RMK B
  • 190620Z VRB02KT CAVOK M01/M02 Q1022 NOSIG RMK B

TAF TAF LSZR
Valido dal 19 a 09 ore il 19 a 18 ore UTC


190825Z 1909/1918 VRB03KT CAVOK
TEMPO 1909/1916 9999 SCT060
ATIS : +41 71 858 51 66
Nessun NOTAM noto per questo aeroporto.



MetMap, La meteo Aeronautica in un colpo d'occhio ! - Copyright ORBIFLY Dicembre 2007 - Disclaimer

ORBIFLY MET'MAP TEAM :

Programmazione e sviluppo : Alexandra Zaïnal
Concezione e sviluppo : Baudouin d'Aumeries
Co-Programmazione e sviluppo : Marc-Olivier Méhu
Supporto tecnico e logistico : Manuel Goepfert
Aiuto per la traduzione : Arnaldo La Scala

Contatto : metmap@orbifly.com




FONTI E CREDITI :

   NOAA